TimeEST,TemperatureF,Dew PointF,Humidity,Sea Level PressureIn,VisibilityMPH,Wind Direction,Wind SpeedMPH,Gust SpeedMPH,PrecipitationIn,Events,Conditions,WindDirDegrees,DateUTC
12:54 AM,43.0,36.0,76,29.33,10.0,SSE,18.4,27.6,0.00,Rain,Light Rain,160,2012-12-21 05:54:00
1:54 AM,42.1,34.0,73,29.35,10.0,SSW,11.5,-,0.00,Rain,Light Rain,200,2012-12-21 06:54:00
2:33 AM,41.0,35.6,81,29.34,9.0,SSW,11.5,-,0.00,Rain,Light Rain,200,2012-12-21 07:33:00
2:54 AM,41.0,35.1,79,29.36,10.0,South,15.0,-,0.00,Rain,Light Rain,190,2012-12-21 07:54:00
3:44 AM,37.4,35.6,93,29.32,10.0,SW,11.5,-,0.00,Rain,Light Rain,230,2012-12-21 08:44:00
3:51 AM,37.4,35.6,93,29.32,10.0,SW,9.2,-,0.00,Rain,Light Rain,220,2012-12-21 08:51:00
3:54 AM,37.9,35.1,89,29.34,10.0,SSW,9.2,-,0.00,Rain,Light Rain,210,2012-12-21 08:54:00
4:26 AM,37.4,35.6,93,29.30,10.0,SW,10.4,-,0.00,Rain,Light Rain,220,2012-12-21 09:26:00
4:54 AM,37.9,35.1,89,29.32,5.0,SW,8.1,-,0.00,Rain,Light Rain,220,2012-12-21 09:54:00
5:49 AM,37.4,32.0,81,29.29,10.0,SW,12.7,-,0.01,Rain,Light Rain,230,2012-12-21 10:49:00
5:54 AM,37.9,32.0,79,29.31,10.0,SW,10.4,-,0.01,Rain,Light Rain,230,2012-12-21 10:54:00
6:21 AM,35.6,32.0,87,29.29,10.0,WSW,13.8,-,0.00,Rain-Snow,Light Rain,240,2012-12-21 11:21:00
6:54 AM,36.0,30.9,82,29.30,5.0,SW,11.5,23.0,0.01,Snow,Light Snow,230,2012-12-21 11:54:00
7:17 AM,37.4,28.4,70,29.28,10.0,SW,12.7,19.6,0.00,,Overcast,220,2012-12-21 12:17:00
7:54 AM,36.0,28.9,76,29.29,10.0,SSW,10.4,-,0.00,Snow,Light Snow,200,2012-12-21 12:54:00
8:54 AM,36.0,28.9,76,29.28,10.0,SW,12.7,-,0.00,,Overcast,230,2012-12-21 13:54:00
9:54 AM,36.0,28.0,73,29.26,10.0,SW,15.0,-,N/A,,Overcast,220,2012-12-21 14:54:00
10:54 AM,35.1,28.9,78,29.26,8.0,SSW,10.4,20.7,0.00,Snow,Light Snow,210,2012-12-21 15:54:00
11:23 AM,35.6,28.4,75,29.23,1.5,SW,11.5,-,0.00,Snow,Light Snow,220,2012-12-21 16:23:00
11:32 AM,33.8,30.2,87,29.23,0.8,SW,9.2,-,0.00,Snow,Light Snow,220,2012-12-21 16:32:00
11:54 AM,34.0,30.0,85,29.24,0.8,SW,10.4,-,0.00,Snow,Light Snow,230,2012-12-21 16:54:00
12:10 PM,33.8,30.2,87,29.22,0.8,SW,11.5,-,0.01,Snow,Light Snow,220,2012-12-21 17:10:00
12:19 PM,33.8,30.2,87,29.21,0.8,SW,10.4,-,0.01,Snow,Light Snow,230,2012-12-21 17:19:00
12:54 PM,33.1,30.9,92,29.23,1.0,WSW,8.1,-,0.03,Snow,Light Snow,240,2012-12-21 17:54:00
1:13 PM,33.8,32.0,93,29.21,0.8,SW,8.1,-,0.01,Snow,Light Snow,230,2012-12-21 18:13:00
1:54 PM,33.1,32.0,96,29.22,0.8,WSW,5.8,-,0.04,Snow,Light Snow,240,2012-12-21 18:54:00
2:47 PM,32.0,32.0,100,29.20,1.0,SSW,3.5,-,0.06,Snow,Light Snow,210,2012-12-21 19:47:00
2:54 PM,32.0,32.0,100,29.22,0.8,SSW,4.6,-,0.06,Snow,Light Snow,200,2012-12-21 19:54:00
3:03 PM,33.8,30.2,87,29.20,1.0,SW,3.5,-,0.01,Snow,Light Snow,220,2012-12-21 20:03:00
3:24 PM,33.8,32.0,93,29.21,0.8,WNW,4.6,-,0.02,Snow,Light Snow,290,2012-12-21 20:24:00
3:32 PM,33.8,32.0,93,29.21,1.0,West,4.6,-,0.02,Snow,Light Snow,270,2012-12-21 20:32:00
3:38 PM,33.8,32.0,93,29.21,2.0,West,3.5,-,0.03,Snow,Light Snow,280,2012-12-21 20:38:00
3:54 PM,33.1,32.0,96,29.24,2.5,WNW,6.9,-,0.03,Snow,Light Snow,300,2012-12-21 20:54:00
3:56 PM,33.8,32.0,93,29.22,3.0,WNW,5.8,-,0.00,Snow,Light Snow,290,2012-12-21 20:56:00
4:04 PM,33.8,32.0,93,29.22,5.0,WNW,6.9,-,0.00,Snow,Light Snow,300,2012-12-21 21:04:00
4:15 PM,33.8,32.0,93,29.22,6.0,WNW,4.6,-,0.00,Snow,Light Snow,290,2012-12-21 21:15:00
4:46 PM,33.8,32.0,93,29.23,7.0,West,5.8,-,0.00,Snow,Light Snow,280,2012-12-21 21:46:00
4:54 PM,34.0,32.0,92,29.25,7.0,West,5.8,-,0.00,Snow,Light Snow,280,2012-12-21 21:54:00
5:54 PM,34.0,32.0,92,29.27,6.0,West,12.7,-,0.00,Snow,Light Snow,260,2012-12-21 22:54:00
6:49 PM,33.8,32.0,93,29.26,4.0,West,16.1,-,0.01,Snow,Light Snow,260,2012-12-21 23:49:00
6:54 PM,33.1,30.9,92,29.28,3.0,West,16.1,-,0.01,Snow,Light Snow,260,2012-12-21 23:54:00
7:21 PM,33.8,30.2,87,29.27,2.5,West,17.3,-,0.01,Snow,Light Snow,270,2012-12-22 00:21:00
7:48 PM,33.8,30.2,87,29.28,1.5,West,18.4,25.3,0.01,Snow,Light Snow,280,2012-12-22 00:48:00
7:54 PM,33.1,30.9,92,29.31,1.5,West,18.4,25.3,0.01,Snow,Light Snow,280,2012-12-22 00:54:00
8:13 PM,33.8,30.2,87,29.29,0.8,WNW,15.0,27.6,0.01,Snow,Light Snow,290,2012-12-22 01:13:00
8:26 PM,32.0,30.2,93,29.30,1.0,WNW,17.3,27.6,0.01,Snow,Light Snow,290,2012-12-22 01:26:00
8:54 PM,32.0,30.0,92,29.34,1.2,WNW,17.3,25.3,0.02,Snow,Light Snow,290,2012-12-22 01:54:00
9:37 PM,30.2,28.4,93,29.34,0.8,WNW,17.3,29.9,0.01,Snow,Light Snow,290,2012-12-22 02:37:00
9:54 PM,30.9,28.9,92,29.37,0.8,WNW,17.3,25.3,0.02,Snow,Light Snow,290,2012-12-22 02:54:00
10:01 PM,30.2,28.4,93,29.35,1.5,WNW,15.0,24.2,0.00,Snow,Light Snow,290,2012-12-22 03:01:00
10:18 PM,30.2,28.4,93,29.36,0.8,WNW,20.7,26.5,0.01,Snow,Light Snow,290,2012-12-22 03:18:00
10:54 PM,30.0,26.1,85,29.41,1.0,NW,19.6,35.7,0.02,Snow,Light Snow,310,2012-12-22 03:54:00
10:59 PM,30.2,26.6,86,29.39,3.0,NW,18.4,33.4,0.01,Snow,Light Snow,310,2012-12-22 03:59:00
11:06 PM,30.2,24.8,80,29.40,6.0,WNW,25.3,35.7,0.01,Snow,Light Snow,300,2012-12-22 04:06:00
11:54 PM,30.9,25.0,79,29.44,8.0,WNW,20.7,34.5,0.01,Snow,Light Snow,300,2012-12-22 04:54:00